This is the latest recevied weather packets stored in our database for station/object F1ZVN-13. If no packets are shown the sender has not sent any weather packets the latest 10 day(s).
| Time | Temp. | Humidity | Pressure | Rain* | Wind** | Luminosity | Snow |
|---|---|---|---|---|---|---|---|
| 1788571852 | 17.22° C | 36% | 1023.9 hPa | 0 mm | 0 m/s | - | - |
| 1788571732 | 17.78° C | 36% | 1023.9 hPa | 0 mm | 0 m/s | - | - |
| 1788571610 | 17.78° C | 36% | 1024 hPa | 0 mm | 0 m/s | - | - |
| 1788571490 | 17.78° C | 35% | 1023.9 hPa | 0 mm | 0 m/s | - | - |
| 1788571367 | 17.78° C | 36% | 1024 hPa | 0 mm | 0 m/s | - | - |
| 1788571251 | 18.33° C | 38% | 1024 hPa | 0 mm | 0 m/s | - | - |
| 1788571127 | 18.33° C | 38% | 1024 hPa | 0 mm | 0 m/s | - | - |
| 1788571005 | 18.33° C | 39% | 1024 hPa | 0 mm | 0 m/s | - | - |
| 1788570883 | 18.33° C | 37% | 1024.2 hPa | 0 mm | 0 m/s | - | - |
| 1788570764 | 18.33° C | 36% | 1024 hPa | 0 mm | 0 m/s | - | - |
| 1788570398 | 18.33° C | 39% | 1024.2 hPa | 0 mm | 0 m/s | - | - |
| 1788570156 | 18.33° C | 41% | 1024.2 hPa | 0 mm | 0 m/s | - | - |
| 1788570135 | 17.78° C | 42% | 1024.2 hPa | 0 mm | 0 m/s | - | - |
| 1788570038 | 17.78° C | 42% | 1024.2 hPa | 0 mm | 0 m/s | - | - |
| 1788569912 | 17.78° C | 40% | 1024.2 hPa | 0 mm | 0 m/s | - | - |
| 1788569703 | 18.33° C | 35% | 1024.2 hPa | 0 mm | 0 m/s | - | - |
| 1788569670 | 18.33° C | 35% | 1024.2 hPa | 0 mm | 0 m/s | - | - |
| 1788569550 | 18.33° C | 36% | 1024.2 hPa | 0 mm | 0 m/s | - | - |
| 1788569428 | 18.33° C | 41% | 1024.2 hPa | 0 mm | 0 m/s | - | - |
| 1788569308 | 18.33° C | 35% | 1024.2 hPa | 0 mm | 0 m/s | - | - |
| 1788569065 | 18.89° C | 35% | 1024.3 hPa | 0 mm | 0 m/s | - | - |
| 1788568943 | 19.44° C | 36% | 1024.3 hPa | 0 mm | 0 m/s | - | - |
| 1788568853 | 19.44° C | 39% | 1024.3 hPa | 0 mm | 0 m/s | - | - |
| 1788568700 | 18.89° C | 39% | 1024.3 hPa | 0 mm | 0 m/s | - | - |
| 1788568581 | 18.89° C | 38% | 1024.3 hPa | 0 mm | 0 m/s | - | - |
* Rain latest hour (hover to see other rain measurements)
** Current wind speed in m/s (hover to see current wind gust speed)